PWSweather.com
Personal Weather Stations
Station Observations

VeniceIT

Lat: 45.472055, Lon: 12.235221

Elevation: 0

Station Type: TP1080WC

http://meteomarghera.asdasd.it/

High Low Average
Temperature -5866.1°F-3276.7°C -5866.1°F-3276.7°C -5866.1°F-3276.7°C
Dew Point -- -- --
Winds 916.0 mph 1474.2 kmh 916.0 mph 1474.2 kmh 916.0 mph N1474.2 kmh N
Wind Gusts 916.0 mph1474.2 kmh 916.0 mph1474.2 kmh 916.0 mph1474.2 kmh
Humidity - - -
Pressure 29.92 in1013.2 mb 29.81 in1009.5 mb -
Precipitation 0.00 in0.0 mm - -
Hour Temp Dew Point Humidity Winds Wind Gusts Pressure Precip Precip Rate Daily Precip Total
12:05 AM -5866.1°F-3276.7°C -- - 916.0 mph N1474.2 kmh N 916.0 mph1474.2 kmh 29.81 in1009.5 mb 0.00 in0.0 mm 0.00 in0.0 mm 0.00 in0.0 mm
12:06 AM -5866.1°F-3276.7°C -- - 916.0 mph N1474.2 kmh N 916.0 mph1474.2 kmh 29.81 in1009.5 mb 0.00 in0.0 mm 0.00 in0.0 mm 0.00 in0.0 mm
12:35 AM -5866.1°F-3276.7°C -- - 916.0 mph N1474.2 kmh N 916.0 mph1474.2 kmh 29.81 in1009.5 mb 0.00 in0.0 mm 0.00 in0.0 mm 0.00 in0.0 mm
12:36 AM -5866.1°F-3276.7°C -- - 916.0 mph N1474.2 kmh N 916.0 mph1474.2 kmh 29.82 in1009.8 mb 0.00 in0.0 mm 0.00 in0.0 mm 0.00 in0.0 mm
01:05 AM -5866.1°F-3276.7°C -- - 916.0 mph N1474.2 kmh N 916.0 mph1474.2 kmh 29.82 in1009.8 mb 0.00 in0.0 mm 0.00 in0.0 mm 0.00 in0.0 mm
01:06 AM -5866.1°F-3276.7°C -- - 916.0 mph N1474.2 kmh N 916.0 mph1474.2 kmh 29.82 in1009.8 mb 0.00 in0.0 mm 0.00 in0.0 mm 0.00 in0.0 mm
01:35 AM -5866.1°F-3276.7°C -- - 916.0 mph N1474.2 kmh N 916.0 mph1474.2 kmh 29.82 in1009.8 mb 0.00 in0.0 mm 0.00 in0.0 mm 0.00 in0.0 mm
01:36 AM -5866.1°F-3276.7°C -- - 916.0 mph N1474.2 kmh N 916.0 mph1474.2 kmh 29.82 in1009.8 mb 0.00 in0.0 mm 0.00 in0.0 mm 0.00 in0.0 mm
02:05 AM -5866.1°F-3276.7°C -- - 916.0 mph N1474.2 kmh N 916.0 mph1474.2 kmh 29.81 in1009.5 mb 0.00 in0.0 mm 0.00 in0.0 mm 0.00 in0.0 mm
02:06 AM -5866.1°F-3276.7°C -- - 916.0 mph N1474.2 kmh N 916.0 mph1474.2 kmh 29.81 in1009.5 mb 0.00 in0.0 mm 0.00 in0.0 mm 0.00 in0.0 mm
02:35 AM -5866.1°F-3276.7°C -- - 916.0 mph N1474.2 kmh N 916.0 mph1474.2 kmh 29.81 in1009.5 mb 0.00 in0.0 mm 0.00 in0.0 mm 0.00 in0.0 mm
02:36 AM -5866.1°F-3276.7°C -- - 916.0 mph N1474.2 kmh N 916.0 mph1474.2 kmh 29.81 in1009.5 mb 0.00 in0.0 mm 0.00 in0.0 mm 0.00 in0.0 mm
03:05 AM -5866.1°F-3276.7°C -- - 916.0 mph N1474.2 kmh N 916.0 mph1474.2 kmh 29.82 in1009.8 mb 0.00 in0.0 mm 0.00 in0.0 mm 0.00 in0.0 mm
03:06 AM -5866.1°F-3276.7°C -- - 916.0 mph N1474.2 kmh N 916.0 mph1474.2 kmh 29.82 in1009.8 mb 0.00 in0.0 mm 0.00 in0.0 mm 0.00 in0.0 mm
03:35 AM -5866.1°F-3276.7°C -- - 916.0 mph N1474.2 kmh N 916.0 mph1474.2 kmh 29.82 in1009.8 mb 0.00 in0.0 mm 0.00 in0.0 mm 0.00 in0.0 mm
03:36 AM -5866.1°F-3276.7°C -- - 916.0 mph N1474.2 kmh N 916.0 mph1474.2 kmh 29.83 in1010.2 mb 0.00 in0.0 mm 0.00 in0.0 mm 0.00 in0.0 mm
04:05 AM -5866.1°F-3276.7°C -- - 916.0 mph N1474.2 kmh N 916.0 mph1474.2 kmh 29.83 in1010.2 mb 0.00 in0.0 mm 0.00 in0.0 mm 0.00 in0.0 mm
04:06 AM -5866.1°F-3276.7°C -- - 916.0 mph N1474.2 kmh N 916.0 mph1474.2 kmh 29.82 in1009.8 mb 0.00 in0.0 mm 0.00 in0.0 mm 0.00 in0.0 mm
04:35 AM -5866.1°F-3276.7°C -- - 916.0 mph N1474.2 kmh N 916.0 mph1474.2 kmh 29.82 in1009.8 mb 0.00 in0.0 mm 0.00 in0.0 mm 0.00 in0.0 mm
04:36 AM -5866.1°F-3276.7°C -- - 916.0 mph N1474.2 kmh N 916.0 mph1474.2 kmh 29.83 in1010.2 mb 0.00 in0.0 mm 0.00 in0.0 mm 0.00 in0.0 mm
05:05 AM -5866.1°F-3276.7°C -- - 916.0 mph N1474.2 kmh N 916.0 mph1474.2 kmh 29.83 in1010.2 mb 0.00 in0.0 mm 0.00 in0.0 mm 0.00 in0.0 mm
05:06 AM -5866.1°F-3276.7°C -- - 916.0 mph N1474.2 kmh N 916.0 mph1474.2 kmh 29.82 in1009.8 mb 0.00 in0.0 mm 0.00 in0.0 mm 0.00 in0.0 mm
05:35 AM -5866.1°F-3276.7°C -- - 916.0 mph N1474.2 kmh N 916.0 mph1474.2 kmh 29.84 in1010.5 mb 0.00 in0.0 mm 0.00 in0.0 mm 0.00 in0.0 mm
05:36 AM -5866.1°F-3276.7°C -- - 916.0 mph N1474.2 kmh N 916.0 mph1474.2 kmh 29.84 in1010.5 mb 0.00 in0.0 mm 0.00 in0.0 mm 0.00 in0.0 mm
06:05 AM -5866.1°F-3276.7°C -- - 916.0 mph N1474.2 kmh N 916.0 mph1474.2 kmh 29.85 in1010.8 mb 0.00 in0.0 mm 0.00 in0.0 mm 0.00 in0.0 mm
06:06 AM -5866.1°F-3276.7°C -- - 916.0 mph N1474.2 kmh N 916.0 mph1474.2 kmh 29.85 in1010.8 mb 0.00 in0.0 mm 0.00 in0.0 mm 0.00 in0.0 mm
06:35 AM -5866.1°F-3276.7°C -- - 916.0 mph N1474.2 kmh N 916.0 mph1474.2 kmh 29.85 in1010.8 mb 0.00 in0.0 mm 0.00 in0.0 mm 0.00 in0.0 mm
06:36 AM -5866.1°F-3276.7°C -- - 916.0 mph N1474.2 kmh N 916.0 mph1474.2 kmh 29.85 in1010.8 mb 0.00 in0.0 mm 0.00 in0.0 mm 0.00 in0.0 mm
07:05 AM -5866.1°F-3276.7°C -- - 916.0 mph N1474.2 kmh N 916.0 mph1474.2 kmh 29.84 in1010.5 mb 0.00 in0.0 mm 0.00 in0.0 mm 0.00 in0.0 mm
07:06 AM -5866.1°F-3276.7°C -- - 916.0 mph N1474.2 kmh N 916.0 mph1474.2 kmh 29.84 in1010.5 mb 0.00 in0.0 mm 0.00 in0.0 mm 0.00 in0.0 mm
07:35 AM -5866.1°F-3276.7°C -- - 916.0 mph N1474.2 kmh N 916.0 mph1474.2 kmh 29.85 in1010.8 mb 0.00 in0.0 mm 0.00 in0.0 mm 0.00 in0.0 mm
07:36 AM -5866.1°F-3276.7°C -- - 916.0 mph N1474.2 kmh N 916.0 mph1474.2 kmh 29.84 in1010.5 mb 0.00 in0.0 mm 0.00 in0.0 mm 0.00 in0.0 mm
08:05 AM -5866.1°F-3276.7°C -- - 916.0 mph N1474.2 kmh N 916.0 mph1474.2 kmh 29.84 in1010.5 mb 0.00 in0.0 mm 0.00 in0.0 mm 0.00 in0.0 mm
08:06 AM -5866.1°F-3276.7°C -- - 916.0 mph N1474.2 kmh N 916.0 mph1474.2 kmh 29.84 in1010.5 mb 0.00 in0.0 mm 0.00 in0.0 mm 0.00 in0.0 mm
08:35 AM -5866.1°F-3276.7°C -- - 916.0 mph N1474.2 kmh N 916.0 mph1474.2 kmh 29.83 in1010.2 mb 0.00 in0.0 mm 0.00 in0.0 mm 0.00 in0.0 mm
08:36 AM -5866.1°F-3276.7°C -- - 916.0 mph N1474.2 kmh N 916.0 mph1474.2 kmh 29.85 in1010.8 mb 0.00 in0.0 mm 0.00 in0.0 mm 0.00 in0.0 mm
09:05 AM -5866.1°F-3276.7°C -- - 916.0 mph N1474.2 kmh N 916.0 mph1474.2 kmh 29.86 in1011.2 mb 0.00 in0.0 mm 0.00 in0.0 mm 0.00 in0.0 mm
09:06 AM -5866.1°F-3276.7°C -- - 916.0 mph N1474.2 kmh N 916.0 mph1474.2 kmh 29.86 in1011.2 mb 0.00 in0.0 mm 0.00 in0.0 mm 0.00 in0.0 mm
09:35 AM -5866.1°F-3276.7°C -- - 916.0 mph N1474.2 kmh N 916.0 mph1474.2 kmh 29.86 in1011.2 mb 0.00 in0.0 mm 0.00 in0.0 mm 0.00 in0.0 mm
09:36 AM -5866.1°F-3276.7°C -- - 916.0 mph N1474.2 kmh N 916.0 mph1474.2 kmh 29.86 in1011.2 mb 0.00 in0.0 mm 0.00 in0.0 mm 0.00 in0.0 mm
10:05 AM -5866.1°F-3276.7°C -- - 916.0 mph N1474.2 kmh N 916.0 mph1474.2 kmh 29.86 in1011.2 mb 0.00 in0.0 mm 0.00 in0.0 mm 0.00 in0.0 mm
10:06 AM -5866.1°F-3276.7°C -- - 916.0 mph N1474.2 kmh N 916.0 mph1474.2 kmh 29.87 in1011.5 mb 0.00 in0.0 mm 0.00 in0.0 mm 0.00 in0.0 mm
10:35 AM -5866.1°F-3276.7°C -- - 916.0 mph N1474.2 kmh N 916.0 mph1474.2 kmh 29.88 in1011.9 mb 0.00 in0.0 mm 0.00 in0.0 mm 0.00 in0.0 mm
10:36 AM -5866.1°F-3276.7°C -- - 916.0 mph N1474.2 kmh N 916.0 mph1474.2 kmh 29.88 in1011.9 mb 0.00 in0.0 mm 0.00 in0.0 mm 0.00 in0.0 mm
11:05 AM -5866.1°F-3276.7°C -- - 916.0 mph N1474.2 kmh N 916.0 mph1474.2 kmh 29.88 in1011.9 mb 0.00 in0.0 mm 0.00 in0.0 mm 0.00 in0.0 mm
11:06 AM -5866.1°F-3276.7°C -- - 916.0 mph N1474.2 kmh N 916.0 mph1474.2 kmh 29.89 in1012.2 mb 0.00 in0.0 mm 0.00 in0.0 mm 0.00 in0.0 mm
11:35 AM -5866.1°F-3276.7°C -- - 916.0 mph N1474.2 kmh N 916.0 mph1474.2 kmh 29.90 in1012.5 mb 0.00 in0.0 mm 0.00 in0.0 mm 0.00 in0.0 mm
11:36 AM -5866.1°F-3276.7°C -- - 916.0 mph N1474.2 kmh N 916.0 mph1474.2 kmh 29.91 in1012.9 mb 0.00 in0.0 mm 0.00 in0.0 mm 0.00 in0.0 mm
12:05 PM -5866.1°F-3276.7°C -- - 916.0 mph N1474.2 kmh N 916.0 mph1474.2 kmh 29.91 in1012.9 mb 0.00 in0.0 mm 0.00 in0.0 mm 0.00 in0.0 mm
12:06 PM -5866.1°F-3276.7°C -- - 916.0 mph N1474.2 kmh N 916.0 mph1474.2 kmh 29.91 in1012.9 mb 0.00 in0.0 mm 0.00 in0.0 mm 0.00 in0.0 mm
12:35 PM -5866.1°F-3276.7°C -- - 916.0 mph N1474.2 kmh N 916.0 mph1474.2 kmh 29.89 in1012.2 mb 0.00 in0.0 mm 0.00 in0.0 mm 0.00 in0.0 mm
12:36 PM -5866.1°F-3276.7°C -- - 916.0 mph N1474.2 kmh N 916.0 mph1474.2 kmh 29.90 in1012.5 mb 0.00 in0.0 mm 0.00 in0.0 mm 0.00 in0.0 mm
01:05 PM -5866.1°F-3276.7°C -- - 916.0 mph N1474.2 kmh N 916.0 mph1474.2 kmh 29.91 in1012.9 mb 0.00 in0.0 mm 0.00 in0.0 mm 0.00 in0.0 mm
01:06 PM -5866.1°F-3276.7°C -- - 916.0 mph N1474.2 kmh N 916.0 mph1474.2 kmh 29.92 in1013.2 mb 0.00 in0.0 mm 0.00 in0.0 mm 0.00 in0.0 mm
01:35 PM -5866.1°F-3276.7°C -- - 916.0 mph N1474.2 kmh N 916.0 mph1474.2 kmh 29.91 in1012.9 mb 0.00 in0.0 mm 0.00 in0.0 mm 0.00 in0.0 mm
01:36 PM -5866.1°F-3276.7°C -- - 916.0 mph N1474.2 kmh N 916.0 mph1474.2 kmh 29.91 in1012.9 mb 0.00 in0.0 mm 0.00 in0.0 mm 0.00 in0.0 mm
02:05 PM -5866.1°F-3276.7°C -- - 916.0 mph N1474.2 kmh N 916.0 mph1474.2 kmh 29.91 in1012.9 mb 0.00 in0.0 mm 0.00 in0.0 mm 0.00 in0.0 mm
02:06 PM -5866.1°F-3276.7°C -- - 916.0 mph N1474.2 kmh N 916.0 mph1474.2 kmh 29.91 in1012.9 mb 0.00 in0.0 mm 0.00 in0.0 mm 0.00 in0.0 mm
02:35 PM -5866.1°F-3276.7°C -- - 916.0 mph N1474.2 kmh N 916.0 mph1474.2 kmh 29.88 in1011.9 mb 0.00 in0.0 mm 0.00 in0.0 mm 0.00 in0.0 mm
02:36 PM -5866.1°F-3276.7°C -- - 916.0 mph N1474.2 kmh N 916.0 mph1474.2 kmh 29.87 in1011.5 mb 0.00 in0.0 mm 0.00 in0.0 mm 0.00 in0.0 mm
03:05 PM -5866.1°F-3276.7°C -- - 916.0 mph N1474.2 kmh N 916.0 mph1474.2 kmh 29.88 in1011.9 mb 0.00 in0.0 mm 0.00 in0.0 mm 0.00 in0.0 mm
03:06 PM -5866.1°F-3276.7°C -- - 916.0 mph N1474.2 kmh N 916.0 mph1474.2 kmh 29.88 in1011.9 mb 0.00 in0.0 mm 0.00 in0.0 mm 0.00 in0.0 mm
03:35 PM -5866.1°F-3276.7°C -- - 916.0 mph N1474.2 kmh N 916.0 mph1474.2 kmh 29.86 in1011.2 mb 0.00 in0.0 mm 0.00 in0.0 mm 0.00 in0.0 mm
03:36 PM -5866.1°F-3276.7°C -- - 916.0 mph N1474.2 kmh N 916.0 mph1474.2 kmh 29.87 in1011.5 mb 0.00 in0.0 mm 0.00 in0.0 mm 0.00 in0.0 mm
04:05 PM -5866.1°F-3276.7°C -- - 916.0 mph N1474.2 kmh N 916.0 mph1474.2 kmh 29.88 in1011.9 mb 0.00 in0.0 mm 0.00 in0.0 mm 0.00 in0.0 mm
04:06 PM -5866.1°F-3276.7°C -- - 916.0 mph N1474.2 kmh N 916.0 mph1474.2 kmh 29.88 in1011.9 mb 0.00 in0.0 mm 0.00 in0.0 mm 0.00 in0.0 mm
04:35 PM -5866.1°F-3276.7°C -- - 916.0 mph N1474.2 kmh N 916.0 mph1474.2 kmh 29.89 in1012.2 mb 0.00 in0.0 mm 0.00 in0.0 mm 0.00 in0.0 mm
04:36 PM -5866.1°F-3276.7°C -- - 916.0 mph N1474.2 kmh N 916.0 mph1474.2 kmh 29.90 in1012.5 mb 0.00 in0.0 mm 0.00 in0.0 mm 0.00 in0.0 mm
05:05 PM -5866.1°F-3276.7°C -- - 916.0 mph N1474.2 kmh N 916.0 mph1474.2 kmh 29.89 in1012.2 mb 0.00 in0.0 mm 0.00 in0.0 mm 0.00 in0.0 mm
05:06 PM -5866.1°F-3276.7°C -- - 916.0 mph N1474.2 kmh N 916.0 mph1474.2 kmh 29.90 in1012.5 mb 0.00 in0.0 mm 0.00 in0.0 mm 0.00 in0.0 mm
05:35 PM -5866.1°F-3276.7°C -- - 916.0 mph N1474.2 kmh N 916.0 mph1474.2 kmh 29.90 in1012.5 mb 0.00 in0.0 mm 0.00 in0.0 mm 0.00 in0.0 mm
05:36 PM -5866.1°F-3276.7°C -- - 916.0 mph N1474.2 kmh N 916.0 mph1474.2 kmh 29.90 in1012.5 mb 0.00 in0.0 mm 0.00 in0.0 mm 0.00 in0.0 mm
06:05 PM -5866.1°F-3276.7°C -- - 916.0 mph N1474.2 kmh N 916.0 mph1474.2 kmh 29.90 in1012.5 mb 0.00 in0.0 mm 0.00 in0.0 mm 0.00 in0.0 mm
06:06 PM -5866.1°F-3276.7°C -- - 916.0 mph N1474.2 kmh N 916.0 mph1474.2 kmh 29.90 in1012.5 mb 0.00 in0.0 mm 0.00 in0.0 mm 0.00 in0.0 mm
06:35 PM -5866.1°F-3276.7°C -- - 916.0 mph N1474.2 kmh N 916.0 mph1474.2 kmh 29.89 in1012.2 mb 0.00 in0.0 mm 0.00 in0.0 mm 0.00 in0.0 mm
06:36 PM -5866.1°F-3276.7°C -- - 916.0 mph N1474.2 kmh N 916.0 mph1474.2 kmh 29.89 in1012.2 mb 0.00 in0.0 mm 0.00 in0.0 mm 0.00 in0.0 mm
07:05 PM -5866.1°F-3276.7°C -- - 916.0 mph N1474.2 kmh N 916.0 mph1474.2 kmh 29.88 in1011.9 mb 0.00 in0.0 mm 0.00 in0.0 mm 0.00 in0.0 mm
07:06 PM -5866.1°F-3276.7°C -- - 916.0 mph N1474.2 kmh N 916.0 mph1474.2 kmh 29.88 in1011.9 mb 0.00 in0.0 mm 0.00 in0.0 mm 0.00 in0.0 mm
07:35 PM -5866.1°F-3276.7°C -- - 916.0 mph N1474.2 kmh N 916.0 mph1474.2 kmh 29.89 in1012.2 mb 0.00 in0.0 mm 0.00 in0.0 mm 0.00 in0.0 mm
07:36 PM -5866.1°F-3276.7°C -- - 916.0 mph N1474.2 kmh N 916.0 mph1474.2 kmh 29.89 in1012.2 mb 0.00 in0.0 mm 0.00 in0.0 mm 0.00 in0.0 mm
08:05 PM -5866.1°F-3276.7°C -- - 916.0 mph N1474.2 kmh N 916.0 mph1474.2 kmh 29.90 in1012.5 mb 0.00 in0.0 mm 0.00 in0.0 mm 0.00 in0.0 mm
08:06 PM -5866.1°F-3276.7°C -- - 916.0 mph N1474.2 kmh N 916.0 mph1474.2 kmh 29.91 in1012.9 mb 0.00 in0.0 mm 0.00 in0.0 mm 0.00 in0.0 mm
08:35 PM -5866.1°F-3276.7°C -- - 916.0 mph N1474.2 kmh N 916.0 mph1474.2 kmh 29.90 in1012.5 mb 0.00 in0.0 mm 0.00 in0.0 mm 0.00 in0.0 mm
08:36 PM -5866.1°F-3276.7°C -- - 916.0 mph N1474.2 kmh N 916.0 mph1474.2 kmh 29.90 in1012.5 mb 0.00 in0.0 mm 0.00 in0.0 mm 0.00 in0.0 mm
09:05 PM -5866.1°F-3276.7°C -- - 916.0 mph N1474.2 kmh N 916.0 mph1474.2 kmh 29.90 in1012.5 mb 0.00 in0.0 mm 0.00 in0.0 mm 0.00 in0.0 mm
09:06 PM -5866.1°F-3276.7°C -- - 916.0 mph N1474.2 kmh N 916.0 mph1474.2 kmh 29.90 in1012.5 mb 0.00 in0.0 mm 0.00 in0.0 mm 0.00 in0.0 mm
09:35 PM -5866.1°F-3276.7°C -- - 916.0 mph N1474.2 kmh N 916.0 mph1474.2 kmh 29.91 in1012.9 mb 0.00 in0.0 mm 0.00 in0.0 mm 0.00 in0.0 mm
09:36 PM -5866.1°F-3276.7°C -- - 916.0 mph N1474.2 kmh N 916.0 mph1474.2 kmh 29.91 in1012.9 mb 0.00 in0.0 mm 0.00 in0.0 mm 0.00 in0.0 mm
10:05 PM -5866.1°F-3276.7°C -- - 916.0 mph N1474.2 kmh N 916.0 mph1474.2 kmh 29.91 in1012.9 mb 0.00 in0.0 mm 0.00 in0.0 mm 0.00 in0.0 mm
10:06 PM -5866.1°F-3276.7°C -- - 916.0 mph N1474.2 kmh N 916.0 mph1474.2 kmh 29.91 in1012.9 mb 0.00 in0.0 mm 0.00 in0.0 mm 0.00 in0.0 mm
10:35 PM -5866.1°F-3276.7°C -- - 916.0 mph N1474.2 kmh N 916.0 mph1474.2 kmh 29.91 in1012.9 mb 0.00 in0.0 mm 0.00 in0.0 mm 0.00 in0.0 mm
10:36 PM -5866.1°F-3276.7°C -- - 916.0 mph N1474.2 kmh N 916.0 mph1474.2 kmh 29.91 in1012.9 mb 0.00 in0.0 mm 0.00 in0.0 mm 0.00 in0.0 mm
11:05 PM -5866.1°F-3276.7°C -- - 916.0 mph N1474.2 kmh N 916.0 mph1474.2 kmh 29.90 in1012.5 mb 0.00 in0.0 mm 0.00 in0.0 mm 0.00 in0.0 mm
11:06 PM -5866.1°F-3276.7°C -- - 916.0 mph N1474.2 kmh N 916.0 mph1474.2 kmh 29.90 in1012.5 mb 0.00 in0.0 mm 0.00 in0.0 mm 0.00 in0.0 mm
11:35 PM -5866.1°F-3276.7°C -- - 916.0 mph N1474.2 kmh N 916.0 mph1474.2 kmh 29.89 in1012.2 mb 0.00 in0.0 mm 0.00 in0.0 mm 0.00 in0.0 mm
11:36 PM -5866.1°F-3276.7°C -- - 916.0 mph N1474.2 kmh N 916.0 mph1474.2 kmh 29.90 in1012.5 mb 0.00 in0.0 mm 0.00 in0.0 mm 0.00 in0.0 mm